| time (UTC) | temp C | wind direction | speed KPH | gust KPH | rain 1hr cm | rain 24hr cm | rain mn cm | humidity % | barometer mb |
| 20260507030858 | 6 | 292 | 4.8 | 11.3 | 0.00 | 1.24 | 1.24 | 97 | 1012.5 |
| 20260507025858 | 5 | 302 | 1.6 | 11.3 | 0.00 | 1.27 | 1.24 | 97 | 1012.4 |
| 20260507023857 | 5 | 211 | 1.6 | 4.8 | 0.00 | 1.37 | 1.24 | 98 | 1012.2 |
| 20260507022857 | 5 | 209 | 0.0 | 3.2 | 0.00 | 1.40 | 1.24 | 98 | 1012.3 |
| 20260507021857 | 5 | 209 | 0.0 | 4.8 | 0.00 | 1.40 | 1.24 | 98 | 1012.3 |
| 20260507020857 | 5 | 243 | 1.6 | 3.2 | 0.00 | 1.40 | 1.24 | 98 | 1012.4 |
| 20260507015856 | 5 | 243 | 1.6 | 3.2 | 0.00 | 1.40 | 1.24 | 98 | 1012.4 |
| 20260507014856 | 5 | 246 | 0.0 | 1.6 | 0.00 | 1.40 | 1.24 | 97 | 1012.3 |
| 20260507013856 | 5 | 246 | 1.6 | 1.6 | 0.00 | 1.40 | 1.24 | 97 | 1012.4 |
| 20260507012856 | 5 | 246 | 0.0 | 1.6 | 0.00 | 1.40 | 1.24 | 97 | 1012.4 |
| 20260507010856 | 5 | 246 | 0.0 | 1.6 | 0.00 | 1.40 | 1.24 | 98 | 1012.4 |
| 20260507005855 | 5 | 246 | 0.0 | 1.6 | 0.00 | 1.40 | 1.24 | 98 | 1012.2 |
| 20260507004855 | 5 | 246 | 1.6 | 3.2 | 0.00 | 1.40 | 1.24 | 98 | 1012.3 |
| 20260507003855 | 5 | 242 | 0.0 | 3.2 | 0.00 | 1.40 | 1.24 | 98 | 1012.0 |
| 20260507002855 | 5 | 242 | 0.0 | 6.4 | 0.00 | 1.40 | 1.24 | 98 | 1012.1 |
| 20260507001855 | 5 | 162 | 6.4 | 9.7 | 0.00 | 1.40 | 1.24 | 98 | 1011.7 |
| 20260507000855 | 6 | 113 | 0.0 | 4.8 | 0.00 | 1.40 | 1.24 | 98 | 1012.0 |
| 20260506235854 | 5 | 107 | 3.2 | 3.2 | 0.00 | 1.42 | 1.24 | 98 | 1011.8 |
| 20260506234854 | 5 | 105 | 0.0 | 0.0 | 0.00 | 1.42 | 1.24 | 98 | 1011.6 |
| 20260506233854 | 6 | 105 | 0.0 | 0.0 | 0.00 | 1.42 | 1.24 | 98 | 1011.4 |
| 20260506232854 | 6 | 105 | 0.0 | 4.8 | 0.00 | 1.47 | 1.24 | 98 | 1011.1 |
| 20260506231854 | 6 | 105 | 3.2 | 4.8 | 0.00 | 1.47 | 1.24 | 98 | 1010.7 |
| 20260506230854 | 6 | 19 | 0.0 | 4.8 | 0.00 | 1.47 | 1.24 | 98 | 1010.8 |
| 20260506225853 | 6 | 19 | 3.2 | 8.0 | 0.00 | 1.47 | 1.24 | 98 | 1010.7 |
| 20260506224853 | 6 | 320 | 3.2 | 9.7 | 0.00 | 1.47 | 1.24 | 98 | 1010.9 |
| 20260506223853 | 6 | 302 | 1.6 | 12.9 | 0.00 | 1.47 | 1.24 | 98 | 1011.0 |
| 20260506221853 | 6 | 355 | 4.8 | 9.7 | 0.00 | 1.47 | 1.24 | 99 | 1010.9 |
| 20260506220853 | 6 | 296 | 1.6 | 12.9 | 0.00 | 1.47 | 1.24 | 98 | 1010.8 |
| 20260506215852 | 6 | 344 | 4.8 | 12.9 | 0.00 | 1.47 | 1.24 | 99 | 1010.7 |
| 20260506213852 | 5 | 318 | 8.0 | 16.1 | 0.00 | 1.47 | 1.24 | 99 | 1010.5 |
| 20260506212852 | 6 | 298 | 12.9 | 16.1 | 0.00 | 1.47 | 1.24 | 99 | 1010.7 |
| 20260506211852 | 6 | 346 | 8.0 | 19.3 | 0.00 | 1.47 | 1.24 | 99 | 1010.6 |
| 20260506210852 | 6 | 350 | 12.9 | 19.3 | 0.00 | 1.47 | 1.24 | 99 | 1010.4 |
| 20260506205851 | 6 | 315 | 9.7 | 19.3 | 0.00 | 1.47 | 1.24 | 99 | 1010.2 |
| 20260506204851 | 6 | 318 | 9.7 | 19.3 | 0.00 | 1.47 | 1.24 | 99 | 1010.2 |
| 20260506203851 | 5 | 5 | 8.0 | 20.9 | 0.00 | 1.47 | 1.24 | 99 | 1009.8 |
| 20260506201851 | 6 | 313 | 9.7 | 22.5 | 0.00 | 1.50 | 1.24 | 99 | 1009.6 |
| 20260506200850 | 6 | 11 | 6.4 | 22.5 | 0.03 | 1.50 | 1.24 | 99 | 1009.3 |
| 20260506194850 | 6 | 317 | 8.0 | 22.5 | 0.05 | 1.50 | 1.24 | 99 | 1009.2 |
| 20260506193850 | 6 | 318 | 14.5 | 24.1 | 0.05 | 1.50 | 1.24 | 99 | 1009.2 |
| 20260506191850 | 6 | 312 | 20.9 | 22.5 | 0.05 | 1.50 | 1.24 | 99 | 1009.1 |
| 20260506185849 | 6 | 336 | 12.9 | 20.9 | 0.03 | 1.47 | 1.22 | 99 | 1009.1 |
| 20260506184849 | 6 | 325 | 16.1 | 20.9 | 0.00 | 1.45 | 1.19 | 99 | 1008.9 |
| 20260506183849 | 6 | 306 | 8.0 | 17.7 | 0.03 | 1.45 | 1.19 | 100 | 1008.8 |
| 20260506182849 | 6 | 340 | 8.0 | 16.1 | 0.03 | 1.57 | 1.19 | 100 | 1008.6 |
| 20260506181849 | 6 | 303 | 4.8 | 14.5 | 0.05 | 1.63 | 1.19 | 100 | 1008.6 |
| 20260506180849 | 7 | 324 | 6.4 | 12.9 | 0.05 | 1.63 | 1.19 | 100 | 1008.5 |
| 20260506175848 | 7 | 307 | 6.4 | 8.0 | 0.08 | 1.63 | 1.19 | 100 | 1008.4 |
| 20260506174848 | 6 | 340 | 1.6 | 11.3 | 0.08 | 1.63 | 1.19 | 100 | 1008.1 |
| 20260506173848 | 6 | 22 | 1.6 | 6.4 | 0.05 | 1.60 | 1.17 | 100 | 1008.1 |
| 20260506172848 | 6 | 38 | 1.6 | 8.0 | 0.05 | 1.60 | 1.17 | 100 | 1008.0 |
| 20260506171847 | 6 | 36 | 4.8 | 11.3 | 0.05 | 1.57 | 1.14 | 99 | 1007.9 |
| 20260506170847 | 6 | 350 | 4.8 | 8.0 | 0.05 | 1.57 | 1.14 | 99 | 1007.9 |
| 20260506165847 | 6 | 28 | 3.2 | 9.7 | 0.03 | 1.55 | 1.12 | 100 | 1007.9 |
| 20260506164847 | 6 | 355 | 8.0 | 9.7 | 0.03 | 1.55 | 1.12 | 100 | 1007.9 |
| 20260506162847 | 6 | 13 | 4.8 | 11.3 | 0.05 | 1.55 | 1.12 | 99 | 1007.9 |
| 20260506161846 | 6 | 17 | 4.8 | 11.3 | 0.03 | 1.52 | 1.09 | 99 | 1007.9 |
| 20260506155846 | 6 | 5 | 4.8 | 8.0 | 0.05 | 1.52 | 1.09 | 99 | 1008.1 |
| 20260506154846 | 6 | 44 | 3.2 | 6.4 | 0.08 | 1.52 | 1.09 | 100 | 1007.9 |
| 20260506153846 | 6 | 31 | 1.6 | 6.4 | 0.10 | 1.52 | 1.09 | 99 | 1008.1 |
| 20260506152845 | 6 | 13 | 3.2 | 11.3 | 0.10 | 1.50 | 1.07 | 99 | 1008.1 |
| 20260506151846 | 6 | 22 | 8.0 | 11.3 | 0.10 | 1.50 | 1.07 | 99 | 1007.9 |
| 20260506150845 | 6 | 14 | 1.6 | 8.0 | 0.13 | 1.50 | 1.07 | 99 | 1007.7 |
| 20260506145845 | 6 | 5 | 8.0 | 11.3 | 0.13 | 1.47 | 1.04 | 99 | 1007.7 |
| 20260506144845 | 5 | 355 | 3.2 | 12.9 | 0.13 | 1.45 | 1.02 | 99 | 1007.6 |
| 20260506143845 | 6 | 331 | 8.0 | 12.9 | 0.13 | 1.42 | 0.99 | 99 | 1007.8 |
| 20260506142845 | 5 | 350 | 6.4 | 12.9 | 0.13 | 1.40 | 0.97 | 99 | 1007.6 |
| 20260506141844 | 5 | 5 | 6.4 | 16.1 | 0.15 | 1.40 | 0.97 | 99 | 1007.6 |
| 20260506140844 | 6 | 355 | 9.7 | 12.9 | 0.18 | 1.37 | 0.94 | 99 | 1007.7 |
| 20260506135844 | 6 | 5 | 6.4 | 12.9 | 0.18 | 1.35 | 0.91 | 99 | 1007.9 |
| 20260506134844 | 6 | 360 | 8.0 | 17.7 | 0.20 | 1.32 | 0.89 | 99 | 1007.7 |
| 20260506133844 | 6 | 15 | 4.8 | 12.9 | 0.23 | 1.30 | 0.86 | 99 | 1007.8 |
| 20260506132844 | 6 | 14 | 11.3 | 12.9 | 0.23 | 1.27 | 0.84 | 99 | 1008.0 |
| 20260506131843 | 6 | 355 | 4.8 | 14.5 | 0.25 | 1.24 | 0.81 | 99 | 1007.9 |
| 20260506130843 | 6 | 351 | 6.4 | 12.9 | 0.23 | 1.19 | 0.76 | 99 | 1007.9 |
| 20260506125843 | 6 | 341 | 4.8 | 11.3 | 0.23 | 1.17 | 0.74 | 99 | 1008.0 |
| 20260506124843 | 6 | 360 | 6.4 | 8.0 | 0.20 | 1.12 | 0.69 | 99 | 1007.8 |
| 20260506123843 | 6 | 11 | 4.8 | 9.7 | 0.18 | 1.07 | 0.64 | 99 | 1007.7 |
| 20260506122842 | 6 | 341 | 3.2 | 9.7 | 0.18 | 1.04 | 0.61 | 99 | 1007.8 |
| 20260506121842 | 6 | 346 | 3.2 | 9.7 | 0.15 | 0.99 | 0.56 | 99 | 1007.9 |
| 20260506120842 | 6 | 5 | 8.0 | 11.3 | 0.20 | 0.97 | 0.53 | 99 | 1008.0 |
| 20260506113841 | 6 | 355 | 6.4 | 9.7 | 0.23 | 0.89 | 0.46 | 99 | 1007.8 |
| 20260506112841 | 6 | 355 | 8.0 | 9.7 | 0.20 | 0.86 | 0.43 | 99 | 1008.0 |
| 20260506110841 | 6 | 9 | 4.8 | 8.0 | 0.18 | 0.76 | 0.33 | 99 | 1008.0 |
| 20260506105841 | 6 | 360 | 3.2 | 8.0 | 0.18 | 0.74 | 0.30 | 99 | 1008.7 |
| 20260506104840 | 6 | 340 | 4.8 | 8.0 | 0.13 | 0.69 | 0.25 | 99 | 1008.5 |
| 20260506103840 | 6 | 5 | 4.8 | 8.0 | 0.13 | 0.66 | 0.23 | 99 | 1008.6 |
| 20260506102840 | 6 | 15 | 1.6 | 8.0 | 0.13 | 0.66 | 0.23 | 99 | 1008.6 |
| 20260506101840 | 6 | 12 | 3.2 | 16.1 | 0.10 | 0.64 | 0.18 | 99 | 1008.5 |
| 20260506100840 | 6 | 5 | 12.9 | 14.5 | 0.10 | 0.61 | 0.15 | 99 | 1008.6 |
| 20260506095840 | 6 | 24 | 6.4 | 20.9 | 0.08 | 0.58 | 0.13 | 98 | 1009.0 |
| 20260506094840 | 6 | 9 | 14.5 | 24.1 | 0.10 | 0.58 | 0.13 | 98 | 1009.1 |
| 20260506092839 | 7 | 331 | 9.7 | 19.3 | 0.10 | 0.56 | 0.10 | 99 | 1009.3 |
| 20260506091909 | 7 | 342 | 9.7 | 17.7 | 0.08 | 0.53 | 0.08 | 99 | 1009.4 |
| 20260506090839 | 7 | 346 | 12.9 | 17.7 | 0.05 | 0.51 | 0.05 | 99 | 1009.1 |
| 20260506085839 | 7 | 9 | 14.5 | 20.9 | 0.05 | 0.51 | 0.05 | 99 | 1009.0 |
| 20260506084908 | 7 | 355 | 6.4 | 17.7 | 0.03 | 0.48 | 0.03 | 99 | 1009.3 |
| 20260506083838 | 7 | 337 | 9.7 | 19.3 | 0.03 | 0.48 | 0.03 | 99 | 1009.4 |
| 20260506082838 | 7 | 30 | 3.2 | 14.5 | 0.00 | 0.46 | 0.00 | 99 | 1009.0 |
| 20260506081838 | 7 | 316 | 8.0 | 11.3 | 0.00 | 0.46 | 0.00 | 99 | 1009.1 |
| 20260506071837 | 7 | 70 | 0.0 | 4.8 | 0.00 | 0.53 | 0.00 | 99 | 1008.9 |
| 20260506070907 | 7 | 70 | 3.2 | 14.5 | 0.00 | 0.53 | 0.00 | 99 | 1008.9 |
| 20260506061906 | 8 | 81 | 14.5 | 20.9 | 0.00 | 0.61 | 0.00 | 98 | 1010.2 |
| 20260506050905 | 8 | 5 | 3.2 | 6.4 | 0.00 | 0.61 | 0.00 | 98 | 1011.1 |
| 20260506044904 | 8 | 40 | 1.6 | 4.8 | 0.00 | 0.61 | 0.00 | 98 | 1011.0 |
| 20260506043904 | 8 | 16 | 1.6 | 12.9 | 0.00 | 0.61 | 0.00 | 98 | 1011.0 |
| 20260506042904 | 8 | 22 | 1.6 | 6.4 | 0.00 | 0.61 | 0.00 | 98 | 1010.9 |
| 20260506041904 | 8 | 355 | 0.0 | 6.4 | 0.00 | 0.61 | 0.00 | 97 | 1011.1 |
| 20260506040904 | 8 | 5 | 6.4 | 6.4 | 0.00 | 0.61 | 0.00 | 97 | 1011.2 |
| 20260506035904 | 8 | 10 | 3.2 | 8.0 | 0.03 | 0.61 | 0.61 | 97 | 1011.3 |
| 20260506034904 | 8 | 10 | 0.0 | 4.8 | 0.08 | 0.61 | 0.61 | 97 | 1011.2 |
| 20260506033903 | 8 | 37 | 0.0 | 4.8 | 0.13 | 0.61 | 0.61 | 97 | 1011.5 |
| 20260506032903 | 8 | 37 | 3.2 | 6.4 | 0.15 | 0.61 | 0.61 | 96 | 1011.5 |
| 20260506031903 | 8 | 360 | 1.6 | 6.4 | 0.15 | 0.61 | 0.61 | 96 | 1011.7 |